Location: Ferchesar
(52.6477°N, 12.4298°E)
Time: 07:21:18
(UTC+02:00)

Transit 4A - Pass Details

Date: 06 March 2021
Orbit: 869 x 976 km, 66.8° (Epoch: 12 April)

Event Time Altitude Azimuth Distance (km) Brightness Sun altitude
Rises 18:03:25 0° 320° (NW) 3,594 11.5 -1.6°
Reaches altitude 10° 18:05:59 10° 319° (NW) 2,631 10.8 -1.9°
Maximum altitude 18:12:05 82° 233° (SW) 917 8.1 -2.9°
Drops below altitude 10° 18:18:00 10° 147° (SSE) 2,546 9.9 -3.8°
Sets 18:20:26 0° 147° (SSE) 3,470 10.6 -4.1°
